Flag for U.S.A. Weather past 2 weeks in Greensboro, North Carolina, U.S.A.

Now
85 °F

Sunny.


Feels Like: 86 °F
Forecast: 69 / 90 °F
Wind: No wind

Location: Piedmont Triad International Airport

Current Time: Sep 1, 2015 at 8:59:45 PM

Latest Report: Sep 1, 2015 at 7:54 PM


Visibility: 10 mi

Pressure: 30.03 "Hg

Humidity: 48%

Dew point: 63 °F

Location of GreensboroLocation

Historic Weather in Greensboro — Graph

°F

Greensboro temperature yesterday

Maximum temperature yesterday: 83 °F (at 4:54 PM)
Minimum temperature yesterday: 67 °F (at 4:54 AM)
Average temperature yesterday: 74 °F

Past Weeks' High & Low Weather Summary

 TemperatureHumidityPressure
High91 °F (Sep 1, 2:54 PM)100% (Aug 19, 1:54 AM)30.23 "Hg (Aug 19, 1:54 AM)
Low62 °F (Aug 28, 6:54 AM)36% (Sep 1, 4:54 PM)29.84 "Hg (Aug 24, 7:54 PM)
Average76 °F70%30.02 "Hg
* Reported Aug 17 6:54 PM — Sep 1 6:54 PM, Greensboro, Weather by CustomWeather, © 2015

Note: Actual official high and low records may vary slightly from our data, if they occured in-between our weather recording intervals... More about our weather records

Advertising

Greensboro weather history for previous 24 hours

 ConditionsComfort  
Time TempWeatherWind HumidityBarometerVisibility
6:54 PM
Tue, Sep 1
88 °FScattered clouds.3 mph39%30.03 "Hg10 mi
4:54 PM91 °FOvercast.5 mph36%30.03 "Hg10 mi
3:54 PM90 °FOvercast.No wind37%30.04 "Hg10 mi
2:54 PM91 °FPartly sunny.5 mph37%30.05 "Hg10 mi
1:54 PM90 °FScattered clouds.5 mph38%30.06 "Hg10 mi
12:54 PM87 °FPassing clouds.No wind43%30.07 "Hg10 mi
11:54 AM85 °FPassing clouds.5 mph51%30.09 "Hg10 mi
10:54 AM84 °FPassing clouds.3 mph55%30.11 "Hg10 mi
9:54 AM80 °FPassing clouds.5 mph67%30.10 "Hg10 mi
8:54 AM76 °FPassing clouds.6 mph82%30.09 "Hg10 mi
7:54 AM72 °FPassing clouds.No wind91%30.09 "Hg10 mi
6:54 AM68 °FClear.No wind96%30.07 "Hg8 mi
5:54 AM68 °FClear.No wind96%30.07 "Hg9 mi
4:54 AM69 °FClear.No wind93%30.06 "Hg10 mi
3:54 AM70 °FClear.No wind93%30.06 "Hg10 mi
2:54 AM69 °FClear.No wind96%30.07 "Hg10 mi
1:54 AM69 °FClear.3 mph93%30.08 "Hg10 mi
12:54 AM71 °FClear.No wind90%30.09 "Hg10 mi
10:54 PM
Mon, Aug 31
72 °FClear.3 mph87%30.08 "Hg10 mi
9:54 PM74 °FPassing clouds.3 mph85%30.07 "Hg10 mi
8:54 PM76 °FOvercast.5 mph77%30.06 "Hg10 mi
Weather by CustomWeather, © 2015

See weather overviewHow to use our weather pages